Regional Weather Roundup
Issued by NWS Sterling, VA

Home | Current Version | Previous Version | Text Only | Print | Product List | Glossary On
Versions: 1 2 3 4 5 6 7 8 9 10 11 12 13 14 15 16 17 18 19 20 21 22 23 24 25 26 27 28 29 30 31 32 33 34 35 36 37 38 39 40 41 42 43 44 45 46 47 48 49 50
000
ASUS41 KLWX 221110
RWRLWX

REGIONAL WEATHER ROUNDUP
NATIONAL WEATHER SERVICE BALTIMORE MD/WASHINGTON DC
700 AM EDT TUE JUL 22 2014

Note: "FAIR" indicates few or no clouds below 12,000 feet
with no significant weather and/or obstructions to visibility.
 TC=TEMPERATURE CELSIUS

 * =Non NWS site. Station does not report precipitation (e.g. rain,
    snow, etc.), thunder, or fog.

DCZ001-MDZ009-015-VAZ040>042-051-053>054-221200-
WASHINGTON METRO
  /KDAA//-FT BELVOIR

CITY           SKY/WX    TMP DP  RH WIND       PRES   REMARKS
WASHINGTON NAT MOCLDY    75  68  78 SE3       30.18R
DULLES         CLOUDY    71  69  93 CALM      30.18R
ANDREWS AFB    MOCLDY    69  68  99 E3        30.18R
QUANTICO       CLOUDY    73  69  87 W3        30.18R
COLLEGE PARK*  CLOUDY    72  72 100 CALM      30.18R
GAITHERSBURG*  CLOUDY    70  68  94 CALM      30.23R

$$

MDZ006>007-011-014-221200-
BALTIMORE METRO

CITY           SKY/WX    TMP DP  RH WIND       PRES   REMARKS
BWI AIRPORT    PTSUNNY   71  68  90 CALM      30.18R
MD SCIENCE CTR   N/A     74  69  85 MISG      30.18S
MARTIN STATE   CLOUDY    73  72  94 CALM      30.20R
ANNAPOLIS      CLOUDY    73  69  87 CALM      30.18S
FORT MEADE*    CLOUDY    66  64  94 CALM      30.20S

$$

MDZ012-015-019>023-221200-
MARYLAND EASTERN SHORE

CITY           SKY/WX    TMP DP  RH WIND       PRES   REMARKS
OCEAN CITY     SUNNY     66  64  93 CALM      30.19R
SALISBURY      NOT AVBL
BAY BRIDGE AP*   N/A     73  72  94 E3        30.18S
CAMBRIDGE*     MOSUNNY   70  66  88 CALM      30.18R

$$

MDZ017>025-221200-
SOUTHERN MARYLAND

CITY           SKY/WX    TMP DP  RH WIND       PRES   REMARKS
PATUXENT RIVER MOSUNNY   69  67  93 CALM      30.18R
ST INIGOES     MOSUNNY   69  66  90 CALM      30.17R
LEONARDTOWN*   MOSUNNY   68  64  88 MISG      30.19R

$$

MDZ003>005-221200-
NORTH CENTRAL MARYLAND

CITY           SKY/WX    TMP DP  RH WIND       PRES   REMARKS
FREDERICK*     CLOUDY    72  72 100 CALM      30.20S
HAGERSTOWN APT CLOUDY    71  68  90 E3        30.19R FOG
WESTMINSTER*   CLOUDY    70  70 100 CALM      30.20R FOG

$$

MDZ501>502-221200-
WESTERN MARYLAND

CITY           SKY/WX    TMP DP  RH WIND       PRES   REMARKS
OAKLAND*       CLEAR     63 N/A N/A S3        30.25S
CUMBERLAND*    CLOUDY    72  70  94 CALM      30.21R

$$

VAZ025>031-221200-
SHENANDOAH VALLEY

CITY           SKY/WX    TMP DP  RH WIND       PRES   REMARKS
WINCHESTER*    NOT AVBL
STAUNTON*      NOT AVBL

$$

WVZ021-048>050-054>055-221200-
EASTERN WEST VIRGINIA PANHANDLE

CITY           SKY/WX    TMP DP  RH WIND       PRES   REMARKS
MARTINSBURG    PTCLDY    69  65  86 CALM      30.18R FOG
PETERSBURG*    CLOUDY    66  62  85 CALM      30.19R

$$

VAZ036>039-050-221200-
CENTRAL FOOTHILLS

CITY           SKY/WX    TMP DP  RH WIND       PRES   REMARKS
CHARLOTTESVILL CLOUDY    72  70  93 S5        30.18R
ORANGE*        NOT AVBL

$$

VAZ055>057-221200-
NORTH AND CENTRAL PIEDMONT

CITY           SKY/WX    TMP DP  RH WIND       PRES   REMARKS
FREDERICKSBRG* NOT AVBL
STAFFORD*      NOT AVBL

$$

NCZ024-NYZ072-PAZ021-071-VAZ022-071-221200-
OTHER REGIONAL OBSERVATIONS

CITY           SKY/WX    TMP DP  RH WIND       PRES   REMARKS
NEW YORK CITY  SUNNY     71  61  70 VRB3      30.20S
PHILADELPHIA   SUNNY     71  63  75 CALM      30.19S
PITTSBURGH     CLEAR     69  67  93 CALM      30.15R
ROANOKE        CLOUDY    71  70  96 E3        30.21R
RICHMOND       MOCLDY    70  68  94 CALM      30.18R FOG
RALEIGH        DRZL/FOG  72  69  90 E5        30.16R VSB 1

$$

ANZ530>537-221200-
MARINE OBSERVATIONS

STATION/POSITION TIME  TEMP    WIND        PRES
                       AIR SEA DIR/SP/G
                 (UTC) (F)     (DEG/KT/KT) (MB)
THOMAS PT LIGHT  1100   74 79  230/  5/  5 1022.6R
BALT KEY BRIDGE  1100   73     150/  3/  4 1021.6S
COVE POINT       1100   74     230/  1/  2 1021.5S
LEWISETTA        1100   73 79  230/  1/  2 1021.4S
SOLOMONS ISLAND  1100      81                N/A
PINEY POINT      1100          190/  2/  3   N/A

$$



USA.gov is the U.S. government's official web portal to all federal, state and local government web resources and services.